User: anonymous   Login
Location: Unspecified
(0.0000°N, 0.0000°E)
Time: 03:17:34
(UTC+02:00)
Language:

NOSS 2-2 (E) - Orbit

View from above orbital plane
View from above orbital plane
View from above satellite
View from above satellite

Ground track
Ground track

The orbit data is extracted from the following two-line orbital elements,

1 21809U 91076E   15111.05239674 0.00000400  00000-0  17975-3 0    07
2 21809  63.3680 331.7315 0678000  14.3398 345.6602 13.41117278    01
Epoch (UTC): 21 April 2015 01:15:27
Eccentricity: 0.0678000
inclination: 63.3680°
perigee height: 598 km
apogee height: 1612 km
right ascension of ascending node: 331.7315°
argument of perigee: 14.3398°
revolutions per day: 13.41117278
mean anomaly at epoch: 345.6602°
orbit number at epoch: 0

The dashed part of the orbit path shows where the satellite is in the earth's shadow,  

DLR